This is the latest recevied weather packets stored in our database for station/object N3LF. If no packets are shown the sender has not sent any weather packets the latest 10 day(s).
| Time | Temp. | Humidity | Pressure | Rain* | Wind** | Luminosity | Snow |
|---|---|---|---|---|---|---|---|
| 1788387174 | 37.22° C | 46% | 1018.8 hPa | 0 mm | - | 187 W/m² | - |
| 1788386870 | 36.67° C | 47% | 1018.8 hPa | 0 mm | - | 200 W/m² | - |
| 1788386569 | 37.78° C | 45% | 1018.9 hPa | 0 mm | - | 214 W/m² | - |
| 1788386265 | 37.78° C | 43% | 1018.7 hPa | 0 mm | - | 229 W/m² | - |
| 1788385960 | 37.78° C | 42% | 1018.8 hPa | 0 mm | - | 241 W/m² | - |
| 1788385656 | 37.78° C | 45% | 1018.7 hPa | 0 mm | - | 253 W/m² | - |
| 1788385354 | 37.22° C | 44% | 1018.9 hPa | 0 mm | - | 266 W/m² | - |
| 1788385050 | 37.22° C | 45% | 1018.8 hPa | 0 mm | - | 280 W/m² | - |
| 1788384750 | 37.78° C | 47% | 1018.9 hPa | 0 mm | - | 295 W/m² | - |
| 1788384450 | 38.33° C | 44% | 1019 hPa | 0 mm | - | 314 W/m² | - |
| 1788384146 | 37.78° C | 44% | 1019.1 hPa | 0 mm | - | 324 W/m² | - |
| 1788383842 | 38.33° C | 43% | 1019 hPa | 0 mm | - | 338 W/m² | - |
| 1788383537 | 37.78° C | 45% | 1019.1 hPa | 0 mm | - | 334 W/m² | - |
| 1788383232 | 38.33° C | 42% | 1019.1 hPa | 0 mm | - | 362 W/m² | - |
| 1788382927 | 37.22° C | 45% | 1019.2 hPa | 0 mm | - | 376 W/m² | - |
| 1788382625 | 36.67° C | 47% | 1019.2 hPa | 0 mm | - | 395 W/m² | - |
| 1788382321 | 37.78° C | 45% | 1019 hPa | 0 mm | - | 414 W/m² | - |
| 1788382016 | 38.33° C | 45% | 1019.1 hPa | 0 mm | - | 422 W/m² | - |
| 1788381715 | 37.78° C | 42% | 1019.2 hPa | 0 mm | - | 434 W/m² | - |
| 1788381412 | 37.22° C | 48% | 1019.3 hPa | 0 mm | - | 438 W/m² | - |
| 1788381112 | 38.33° C | 45% | 1019.3 hPa | 0 mm | - | 452 W/m² | - |
| 1788380806 | 38.33° C | 44% | 1019.3 hPa | 0 mm | - | 466 W/m² | - |
| 1788380503 | 36.67° C | 45% | 1019.4 hPa | 0 mm | - | 475 W/m² | - |
| 1788380199 | 37.22° C | 44% | 1019.6 hPa | 0 mm | - | 490 W/m² | - |
| 1788379898 | 36.11° C | 47% | 1019.5 hPa | 0 mm | - | 511 W/m² | - |
* Rain latest hour (hover to see other rain measurements)
** Current wind speed in m/s (hover to see current wind gust speed)